Canton, GA

3:12 AM EST on December 06, 2019 (GMT -0500)
Canton

Weather History for KCNI - November, 2019

Change the Weather History Date:

Wednesday, November 13, 2019

  Actual Average (KMGE) Record (KMGE)
Temperature  
Mean Temperature 32 °F -  
Max Temperature 46 °F 59 °F 75 °F (2007)
Min Temperature 19 °F 41 °F 26 °F (2013)
Degree Days  
Heating Degree Days 32    
Moisture  
Dew Point 18 °F    
Average Humidity 60    
Maximum Humidity 100    
Minimum Humidity 25    
Precipitation  
Precipitation 0.00 in - - ()
Sea Level Pressure  
Sea Level Pressure 30.30 in    
Wind  
Wind Speed 1 mph (East)    
Max Wind Speed 10 mph    
Max Gust Speed 16 mph    
Visibility 10 miles    
Events      
Averages and records for this station are not official NWS values.
T = Trace of Precipitation, MM = Missing Value Source: NWS Daily Summary

Daily Weather History Graph

Daily Weather History Graph

Search for Another Location

Airport or City:

Astronomy

Nov. 13, 2019 Rise Set
Actual Time 7:08 AM EST 5:34 PM EST
Civil Twilight 6:42 AM EST 6:01 PM EST
Nautical Twilight 6:11 AM EST 6:31 PM EST
Astronomical Twilight 5:42 AM EST 7:01 PM EST
Moon 6:39 PM EST (11/13) 8:00 AM EST (11/13)
Length of Visible Light 11h 19m
Length of Day
10h 26m
Full, 99% of the Moon is Illuminated
Nov 13
Full
Nov 19
Last Quarter
Nov 26
New
Dec 4
First Quarter
Dec 12
Full

Hourly Weather History & Observations

Time (EST) Temp. Windchill Dew Point Humidity Pressure Visibility Wind Dir Wind Speed Gust Speed Precip Events Conditions
12:10 AM 26.6 °F - 17.6 °F 69% 30.26 in 10.0 mi Calm Calm - N/A   Clear
12:30 AM 24.8 °F 20.5 °F 17.6 °F 74% 30.26 in 10.0 mi NW 3.5 mph - N/A   Clear
12:50 AM 24.8 °F - 17.6 °F 74% 30.26 in 10.0 mi Calm Calm - N/A   Clear
1:10 AM 24.8 °F - 17.6 °F 74% 30.26 in 10.0 mi Calm Calm - N/A   Clear
1:30 AM 23.0 °F - 17.6 °F 80% 30.26 in 10.0 mi Calm Calm - N/A   Clear
1:50 AM 23.0 °F - 19.4 °F 86% 30.25 in 10.0 mi Calm Calm - N/A   Clear
2:10 AM 23.0 °F - 19.4 °F 86% 30.26 in 10.0 mi Calm Calm - N/A   Clear
2:30 AM 23.0 °F - 19.4 °F 86% 30.26 in 10.0 mi Calm Calm - N/A   Clear
2:50 AM 23.0 °F - 19.4 °F 86% 30.27 in 10.0 mi Calm Calm - N/A   Clear
3:10 AM 23.0 °F - 19.4 °F 86% 30.27 in 10.0 mi Calm Calm - N/A   Clear
3:30 AM 23.0 °F - 19.4 °F 86% 30.27 in 10.0 mi Calm Calm - N/A   Clear
3:50 AM 21.2 °F - 19.4 °F 93% 30.28 in 10.0 mi Calm Calm - N/A   Clear
4:10 AM 21.2 °F - 17.6 °F 86% 30.28 in 10.0 mi Calm Calm - N/A   Clear
4:30 AM 21.2 °F - 19.4 °F 93% 30.27 in 10.0 mi Calm Calm - N/A   Clear
4:50 AM 19.4 °F - 19.4 °F 100% 30.28 in 10.0 mi Calm Calm - N/A   Clear
5:10 AM 19.4 °F - 19.4 °F 100% 30.28 in 10.0 mi Calm Calm - N/A   Clear
5:30 AM 21.2 °F - 19.4 °F 93% 30.29 in 10.0 mi Calm Calm - N/A   Clear
6:30 AM 21.2 °F - 19.4 °F 93% 30.30 in 10.0 mi Calm Calm - N/A   Clear
6:50 AM 19.4 °F - 17.6 °F 93% 30.31 in 10.0 mi Calm Calm - N/A   Clear
7:10 AM 21.2 °F - 19.4 °F 93% 30.32 in 10.0 mi Calm Calm - N/A   Clear
7:30 AM 21.2 °F - 19.4 °F 93% 30.32 in 10.0 mi Calm Calm - N/A   Clear
7:50 AM 21.2 °F - 19.4 °F 93% 30.33 in 10.0 mi Calm Calm - N/A   Clear
8:10 AM 24.8 °F - 21.2 °F 86% 30.33 in 10.0 mi Calm Calm - N/A   Clear
8:30 AM 26.6 °F 21.2 °F 21.2 °F 80% 30.34 in 10.0 mi East 4.6 mph - N/A   Clear
8:50 AM 28.4 °F 24.6 °F 23.0 °F 80% 30.35 in 10.0 mi ENE 3.5 mph - N/A   Clear
9:10 AM 30.2 °F 23.4 °F 23.0 °F 75% 30.37 in 10.0 mi ENE 6.9 mph - N/A   Clear
9:50 AM 32.0 °F 23.6 °F 23.0 °F 69% 30.36 in 10.0 mi East 10.4 mph 16.1 mph N/A   Clear
10:10 AM 33.8 °F 27.7 °F 23.0 °F 65% 30.35 in 10.0 mi East 6.9 mph - N/A   Clear
10:30 AM 35.6 °F 28.0 °F 21.2 °F 56% 30.36 in 10.0 mi East 10.4 mph - N/A   Clear
10:50 AM 35.6 °F 29.2 °F 19.4 °F 52% 30.36 in 10.0 mi East 8.1 mph - N/A   Clear
11:10 AM 37.4 °F 31.4 °F 19.4 °F 48% 30.35 in 10.0 mi SE 8.1 mph - N/A   Clear
12:10 PM 41.0 °F 35.8 °F 15.8 °F 36% 30.33 in 10.0 mi SE 8.1 mph - N/A   Clear
12:30 PM 41.0 °F 37.1 °F 14.0 °F 33% 30.31 in 10.0 mi East 5.8 mph - N/A   Clear
12:50 PM 41.0 °F 35.8 °F 14.0 °F 33% 30.30 in 10.0 mi ESE 8.1 mph - N/A   Clear
1:10 PM 42.8 °F 40.1 °F 12.2 °F 29% 30.29 in 10.0 mi ESE 4.6 mph - N/A   Clear
1:30 PM 42.8 °F - 14.0 °F 31% 30.29 in 10.0 mi Calm Calm - N/A   Clear
1:50 PM 44.6 °F 42.2 °F 14.0 °F 29% 30.27 in 10.0 mi ENE 4.6 mph - N/A   Clear
2:10 PM 44.6 °F 39.7 °F 14.0 °F 29% 30.26 in 10.0 mi East 9.2 mph - N/A   Clear
2:30 PM 44.6 °F - 14.0 °F 29% 30.25 in 10.0 mi Calm Calm - N/A   Clear
2:50 PM 46.4 °F - 14.0 °F 27% 30.25 in 10.0 mi Calm Calm - N/A   Clear
3:10 PM 44.6 °F 43.1 °F 14.0 °F 29% 30.26 in 10.0 mi ENE 3.5 mph - N/A   Clear
3:30 PM 46.4 °F - 12.2 °F 25% 30.27 in 10.0 mi Calm Calm - N/A   Clear
3:50 PM 46.4 °F - 14.0 °F 27% 30.28 in 10.0 mi Calm Calm - N/A   Clear
4:10 PM 44.6 °F - 12.2 °F 27% 30.28 in 10.0 mi Calm Calm - N/A   Clear
4:30 PM 46.4 °F - 14.0 °F 27% 30.28 in 10.0 mi Calm Calm - N/A   Clear
4:50 PM 44.6 °F - 14.0 °F 29% 30.29 in 10.0 mi Calm Calm - N/A   Clear
5:10 PM 42.8 °F - 14.0 °F 31% 30.29 in 10.0 mi Calm Calm - N/A   Clear
5:30 PM 42.8 °F - 14.0 °F 31% 30.29 in 10.0 mi Calm Calm - N/A   Clear
5:50 PM 41.0 °F - 15.8 °F 36% 30.29 in 10.0 mi Calm Calm - N/A   Clear
6:10 PM 41.0 °F - 15.8 °F 36% 30.29 in 10.0 mi Calm Calm - N/A   Clear
6:30 PM 39.2 °F - 17.6 °F 42% 30.30 in 10.0 mi Calm Calm - N/A   Clear
6:50 PM 37.4 °F - 17.6 °F 45% 30.30 in 10.0 mi Calm Calm - N/A   Clear
7:10 PM 37.4 °F - 17.6 °F 45% 30.30 in 10.0 mi Calm Calm - N/A   Clear
7:30 PM 35.6 °F - 17.6 °F 48% 30.30 in 10.0 mi Calm Calm - N/A   Clear
7:50 PM 35.6 °F - 19.4 °F 52% 30.29 in 10.0 mi Calm Calm - N/A   Clear
8:10 PM 35.6 °F - 19.4 °F 52% 30.29 in 10.0 mi Calm Calm - N/A   Clear
8:30 PM 35.6 °F - 19.4 °F 52% 30.30 in 10.0 mi Calm Calm - N/A   Clear
8:50 PM 35.6 °F - 19.4 °F 52% 30.30 in 10.0 mi Calm Calm - N/A   Clear
9:10 PM 33.8 °F - 19.4 °F 56% 30.30 in 10.0 mi Calm Calm - N/A   Clear
9:50 PM 33.8 °F - 19.4 °F 56% 30.30 in 10.0 mi Calm Calm - N/A   Clear
10:10 PM 32.0 °F - 21.2 °F 64% 30.30 in 10.0 mi Calm Calm - N/A   Clear
10:30 PM 33.8 °F - 21.2 °F 60% 30.31 in 10.0 mi Calm Calm - N/A   Clear
10:50 PM 32.0 °F - 21.2 °F 64% 30.31 in 10.0 mi Calm Calm - N/A   Clear
11:10 PM 32.0 °F - 21.2 °F 64% 30.31 in 10.0 mi Calm Calm - N/A   Clear
11:30 PM 32.0 °F - 21.2 °F 64% 30.32 in 10.0 mi Calm Calm - N/A   Clear
11:50 PM 32.0 °F - 21.2 °F 64% 30.32 in 10.0 mi Calm Calm - N/A   Clear